User: anonymous   Login
Location: Unspecified
(0.0000°N, 0.0000°E)
Time: 02:59:13
(UTC+00:00)
Language:

IGS RADAR-5 - Orbit

View from above orbital plane
View from above orbital plane
View from above satellite
View from above satellite

Ground track
Ground track

The orbit data is extracted from the following two-line orbital elements,

1 42072U 17015A   17256.91129633 0.00000000  00000-0  00000-0 0    07
2 42072  97.3718 326.9392 0001500 342.3332  17.6666 15.25977100    01
Epoch (UTC): 13 September 2017 21:52:16
Eccentricity: 0.0001500
inclination: 97.3718°
perigee height: 487 km
apogee height: 489 km
right ascension of ascending node: 326.9392°
argument of perigee: 342.3332°
revolutions per day: 15.25977100
mean anomaly at epoch: 17.6666°
orbit number at epoch: 0

The dashed part of the orbit path shows where the satellite is in the earth's shadow,  

DLR